[[{"header":{"parameterUnit":"m.s-1","parameterCategory":1,"la1":30.2991,"la2":30.254,"lo1":-89.0895,"lo2":-89.0444,"dy":0.0017,"dx":0.0017,"nx":28,"ny":28,"refTime":"2025-11-19T09:00:00:Z","depth":0,"parameterNumber":2,"parameterNumberName":"U-component_of_WINDS"},"data":[0,0,0,0,0,0,0,0,0,0,0,0,0,0,0,0,0,0,0,0,0,0,0,0,0,0,0,0,0,0,0,0,0,0,0,0,0,0,0,0,0,0,0,0,0,0,0,0,0,0,0,0,0,0,0,0,0,0,-0.2006,-0.2007,0,-0.2024,-0.2024,-0.2024,-0.2016,-0.2015,-0.2015,-0.2014,-0.2033,-0.2034,-0.2035,0,0,0,0,0,0,0,0,0,0,0,0,0,-0.1967,-0.1968,-0.2006,-0.2007,-0.2007,-0.2024,-0.2024,-0.2024,-0.2016,-0.2015,-0.2015,-0.2014,-0.2033,-0.2034,-0.2035,0,0,0,0,0,0,0,0,0,0,0,0,0,-0.1984,-0.1968,-0.2006,-0.2005,-0.2005,-0.2024,-0.2024,-0.2025,-0.2016,-0.2015,-0.2015,-0.2014,-0.2033,-0.2034,-0.2035,-0.2058,0,0,-0.204,-0.204,0,0,0,0,0,0,0,0,-0.1983,-0.1986,-0.2005,-0.2005,-0.2005,-0.2017,-0.2017,-0.2036,-0.2016,-0.2012,-0.2014,-0.2014,-0.2028,-0.203,-0.2035,-0.2059,-0.206,-0.204,-0.2041,-0.2041,-0.2042,0,0,0,0,0,0,0,-0.1982,-0.1985,-0.2013,-0.2005,-0.2005,-0.2003,-0.2005,-0.2021,-0.2024,-0.2012,-0.2011,-0.2014,-0.2028,-0.2034,-0.2035,-0.206,-0.204,-0.2041,-0.2042,-0.2042,-0.2104,-0.2105,0,0,0,0,0,0,-0.1981,-0.1984,-0.2013,-0.2014,-0.1992,-0.2005,-0.2007,-0.2014,-0.2024,-0.2024,-0.2014,-0.2013,-0.2032,-0.2034,-0.2036,-0.2064,-0.2041,-0.2043,-0.2043,-0.2104,-0.2105,-0.2106,0,0,0,0,0,0,-0.198,-0.1983,-0.2012,-0.1999,-0.2002,-0.2006,-0.2014,-0.2014,-0.202,-0.2025,-0.2026,-0.2019,-0.2031,-0.2034,-0.2053,-0.2065,-0.2043,-0.2044,-0.2103,-0.2104,-0.2105,-0.212,0,0,0,0,0,0,-0.1979,-0.1983,-0.1991,-0.1999,-0.2003,-0.2028,-0.2015,-0.2015,-0.2022,-0.2021,-0.203,-0.2031,-0.2031,-0.2051,-0.2054,-0.2066,-0.2046,-0.2102,-0.2103,-0.2105,-0.2119,-0.2122,-0.2124,0,0,0,0,0,-0.1977,-0.1995,-0.1992,-0.1995,-0.2013,-0.2029,-0.2031,-0.2031,-0.2023,-0.2032,-0.2035,-0.203,-0.2063,-0.2053,-0.2057,-0.2069,-0.2101,-0.2103,-0.2105,-0.2117,-0.2121,-0.2124,0,0,0,0,0,0,-0.1989,-0.1996,-0.1992,-0.2013,-0.202,-0.2027,-0.2038,-0.2035,-0.2045,-0.2043,-0.2043,-0.2045,-0.2065,-0.2069,-0.2057,-0.2092,-0.2081,-0.2083,-0.2089,-0.2093,-0.2095,-0.2095,-0.2047,0,0,0,0,0,-0.1993,-0.2005,-0.2011,-0.2028,-0.2032,-0.2034,-0.2041,-0.204,-0.2048,-0.2051,-0.2056,-0.2065,-0.2077,-0.2085,-0.2096,-0.2119,-0.2121,-0.2129,-0.2132,-0.2135,-0.2137,-0.2151,-0.2155,-0.2112,-0.2111,-0.2111,0,0,-0.2003,-0.2009,-0.2016,-0.203,-0.2036,-0.2049,-0.2037,-0.2051,-0.2061,-0.2054,-0.2072,-0.2076,-0.2085,-0.2106,-0.2116,-0.211,-0.215,-0.2137,-0.2139,-0.214,-0.2153,-0.2158,-0.2161,-0.2113,-0.2113,-0.2112,0,0,-0.2029,-0.2033,-0.2049,-0.2055,-0.2064,-0.2065,-0.2069,-0.2077,-0.2079,-0.2097,-0.2093,-0.2105,-0.2125,-0.2132,-0.2139,-0.2167,-0.2164,-0.2171,-0.2186,-0.22,-0.2203,-0.2206,-0.2218,-0.2222,-0.2173,-0.2173,-0.2173,0,-0.204,-0.2059,-0.2057,-0.2072,-0.2079,-0.2073,-0.2089,-0.2095,-0.2107,-0.2113,-0.2106,-0.2132,-0.2138,-0.2162,-0.2169,-0.2173,-0.2179,-0.217,-0.2203,-0.2206,-0.2209,-0.222,-0.2224,-0.2174,-0.2174,-0.2174,-0.2174,0,-0.2073,-0.2086,-0.2098,-0.211,-0.2118,-0.2133,-0.2135,-0.2143,-0.2142,-0.2144,-0.2164,-0.217,-0.2184,-0.2189,-0.2187,-0.2213,-0.2209,-0.2202,-0.2191,-0.2214,-0.2224,-0.2228,-0.2176,-0.2175,-0.2175,-0.2175,0,0,-0.2106,-0.2118,-0.2122,-0.2128,-0.2137,-0.2148,-0.2163,-0.2176,-0.2184,-0.2192,-0.2206,-0.2224,-0.2218,-0.2226,-0.2225,-0.2237,-0.2261,-0.2229,-0.2229,-0.2236,-0.2291,-0.2296,-0.2301,-0.2258,-0.2259,-0.2259,-0.229,0,-0.2133,-0.216,-0.2159,-0.2185,-0.2197,-0.2192,-0.2206,-0.2213,-0.2216,-0.2228,-0.2231,-0.2245,-0.2235,-0.224,-0.2251,-0.2255,-0.2272,-0.2253,-0.2272,-0.2272,-0.2271,-0.2306,-0.2312,-0.2341,-0.2294,-0.2295,-0.2295,0,-0.2168,-0.2178,-0.2205,-0.2213,-0.2219,-0.2231,-0.2243,-0.2254,-0.2263,-0.2264,-0.2273,-0.2271,-0.2287,-0.2274,-0.2298,-0.2285,-0.2293,-0.2296,-0.2297,-0.23,-0.2286,-0.2312,-0.235,-0.2355,-0.2301,-0.2301,-0.2301,0,-0.2192,-0.2212,-0.223,-0.2235,-0.2245,-0.2254,-0.2259,-0.2267,-0.2275,-0.2286,-0.2292,-0.2304,-0.2311,-0.2321,-0.2323,-0.2313,-0.2347,-0.2334,-0.235,-0.235,-0.2358,-0.2358,-0.24,-0.2361,-0.2361,-0.2361,-0.2361,0,-0.2223,-0.2239,-0.2241,-0.2253,-0.2272,-0.2271,-0.229,-0.2294,-0.2302,-0.2315,-0.231,-0.2323,-0.2323,-0.2336,-0.2338,-0.2358,-0.2361,-0.2363,-0.2364,-0.2364,-0.2364,-0.237,-0.2369,-0.2362,-0.2362,-0.2361,-0.2361,0,-0.2252,-0.2254,-0.2274,-0.2282,-0.2285,-0.2298,-0.2306,-0.2317,-0.232,-0.2336,-0.234,-0.2344,-0.2359,-0.2362,-0.2379,-0.238,-0.2405,-0.2402,-0.2402,-0.2402,-0.2418,-0.2417,-0.2467,-0.2474,-0.2429,-0.2429,-0.243,0,-0.2273,-0.2285,-0.2295,-0.2303,-0.2308,-0.2321,-0.233,-0.233,-0.2339,-0.235,-0.2361,-0.2375,-0.2387,-0.2412,-0.2417,-0.2431,-0.243,-0.2446,-0.2432,-0.2433,-0.2432,-0.2432,-0.2434,-0.2449,-0.245,-0.245,-0.2451,0,-0.2309,-0.2309,-0.2321,-0.2334,-0.2344,-0.2353,-0.2363,-0.237,-0.2371,-0.2382,-0.2397,-0.2406,-0.2424,-0.244,-0.2453,-0.2459,-0.2456,-0.2455,-0.246,-0.2461,-0.2461,-0.2463,-0.2411,-0.2454,-0.2454,-0.2453,-0.2453,-0.2453,-0.2336,-0.2347,-0.2356,-0.237,-0.2377,-0.2386,-0.2397,-0.2401,-0.2414,-0.2429,-0.2428,-0.2445,-0.2455,-0.2473,-0.248,-0.2494,-0.2488,-0.2495,-0.2497,-0.2499,-0.2501,-0.2458,-0.2496,-0.2496,-0.2496,-0.2496,-0.2496,0,-0.2373,-0.2378,-0.2391,-0.2404,-0.2415,-0.241,-0.2421,-0.243,-0.2446,-0.2455,-0.2466,-0.2485,-0.25,-0.2506,-0.2521,-0.2531,-0.253,-0.2535,-0.2535,-0.2537,-0.2504,-0.2499,-0.2536,-0.2536,-0.2536,-0.2536,-0.2536,-0.2536,-0.2394,-0.2414,-0.2415,-0.2439,-0.2444,-0.2461,-0.2468,-0.2476,-0.2484,-0.2504,-0.2516,-0.252,-0.2529,-0.2544,-0.2558,-0.2559,-0.2566,-0.2572,-0.2573,-0.2543,-0.2539,-0.2535,-0.253,-0.2573,-0.2573,-0.2604,-0.2605,-0.2605]},{"header":{"parameterUnit":"m.s-1","parameterCategory":1,"la1":30.2991,"la2":30.254,"lo1":-89.0895,"lo2":-89.0444,"dy":0.0017,"dx":0.0017,"nx":28,"ny":28,"refTime":"2025-11-19T09:00:00:Z","depth":0,"parameterNumber":3,"parameterNumberName":"V-component_of_WINDS"},"data":[0,0,0,0,0,0,0,0,0,0,0,0,0,0,0,0,0,0,0,0,0,0,0,0,0,0,0,0,0,0,0,0,0,0,0,0,0,0,0,0,0,0,0,0,0,0,0,0,0,0,0,0,0,0,0,0,0,0,1.237,1.2369,0,1.2292,1.2291,1.229,1.229,1.2291,1.2292,1.2293,1.2206,1.2203,1.22,0,0,0,0,0,0,0,0,0,0,0,0,0,1.2513,1.251,1.237,1.2369,1.2368,1.2292,1.2291,1.229,1.229,1.2291,1.2292,1.2293,1.2208,1.2204,1.22,0,0,0,0,0,0,0,0,0,0,0,0,0,1.2444,1.2509,1.237,1.2359,1.2357,1.2293,1.2291,1.229,1.2289,1.2291,1.2292,1.2294,1.2209,1.2204,1.2199,1.2139,0,0,1.2184,1.2182,0,0,0,0,0,0,0,0,1.2448,1.2439,1.2362,1.236,1.2358,1.2302,1.231,1.2239,1.2289,1.2315,1.2293,1.2295,1.2237,1.223,1.2211,1.2135,1.2131,1.2184,1.2181,1.2179,1.2178,0,0,0,0,0,0,0,1.2453,1.2442,1.2339,1.236,1.2358,1.2356,1.2348,1.2296,1.2268,1.2313,1.2313,1.2304,1.2236,1.2216,1.2209,1.213,1.2184,1.218,1.2177,1.2175,1.2,1.1998,0,0,0,0,0,0,1.2461,1.2446,1.2342,1.2337,1.2408,1.2352,1.2343,1.2318,1.2269,1.2263,1.2302,1.2304,1.2224,1.2215,1.2206,1.2132,1.2179,1.2174,1.2172,1.2001,1.1999,1.1997,0,0,0,0,0,0,1.2464,1.2452,1.2345,1.2392,1.2378,1.2348,1.232,1.2316,1.2296,1.2261,1.2255,1.2288,1.2225,1.2213,1.2156,1.2129,1.2172,1.2168,1.2003,1.2001,1.1998,1.1984,0,0,0,0,0,0,1.2468,1.2453,1.2431,1.2391,1.2375,1.2297,1.2319,1.2313,1.2289,1.229,1.2246,1.224,1.2225,1.2163,1.2151,1.2123,1.2164,1.2006,1.2002,1.1999,1.1987,1.1981,1.1976,0,0,0,0,0,1.2473,1.2428,1.243,1.2417,1.2347,1.2296,1.2286,1.2272,1.2287,1.2263,1.2241,1.2241,1.2135,1.2158,1.2144,1.2114,1.2007,1.2003,1.1999,1.1989,1.1982,1.1977,0,0,0,0,0,0,1.2463,1.2423,1.2424,1.2365,1.2334,1.2296,1.2266,1.2265,1.2228,1.223,1.2212,1.2202,1.2145,1.2124,1.215,1.2053,1.2072,1.2066,1.2069,1.2062,1.2057,1.2063,1.216,0,0,0,0,0,1.2454,1.2417,1.2384,1.2335,1.232,1.2296,1.2272,1.2264,1.2231,1.2217,1.219,1.2155,1.2114,1.2087,1.2047,1.1984,1.1974,1.1957,1.1952,1.1948,1.1942,1.1906,1.1898,1.1984,1.1984,1.1985,0,0,1.2435,1.2408,1.2386,1.2332,1.2307,1.2268,1.2284,1.2242,1.2212,1.221,1.2155,1.2134,1.2094,1.2034,1.2006,1.2014,1.1916,1.1943,1.194,1.1936,1.1901,1.1893,1.1886,1.1982,1.1982,1.1983,0,0,1.238,1.2356,1.2314,1.2289,1.2252,1.2237,1.2226,1.2188,1.2175,1.212,1.2118,1.2081,1.201,1.1983,1.1959,1.1895,1.1894,1.1882,1.1855,1.1821,1.1814,1.1808,1.1785,1.1777,1.1876,1.1876,1.1876,0,1.236,1.2302,1.2291,1.2249,1.2225,1.2224,1.218,1.2155,1.2106,1.2089,1.21,1.2012,1.1985,1.1918,1.1903,1.1884,1.1871,1.1887,1.1817,1.181,1.1804,1.1782,1.1773,1.1875,1.1875,1.1875,1.1876,0,1.228,1.224,1.2209,1.2165,1.2138,1.2094,1.2075,1.2048,1.2043,1.2026,1.197,1.1938,1.1892,1.1875,1.1868,1.1807,1.1814,1.1821,1.1839,1.1795,1.1774,1.1765,1.1874,1.1874,1.1874,1.1875,0,0,1.2214,1.2166,1.2154,1.2134,1.2094,1.2062,1.2019,1.1976,1.1953,1.1919,1.1882,1.1823,1.183,1.1803,1.1793,1.1763,1.1714,1.1774,1.1773,1.1764,1.1644,1.1639,1.1629,1.1714,1.1712,1.1711,1.1648,0,1.2154,1.208,1.2069,1.2002,1.1965,1.1964,1.1926,1.1896,1.1879,1.1843,1.1824,1.1782,1.1795,1.1779,1.1749,1.1727,1.169,1.1731,1.1677,1.1675,1.1687,1.1618,1.1612,1.1554,1.1639,1.1638,1.1637,0,1.2074,1.2042,1.1972,1.1938,1.1921,1.1888,1.1848,1.1815,1.1781,1.177,1.1742,1.1736,1.1689,1.1711,1.1646,1.1674,1.1651,1.1637,1.1634,1.1628,1.1653,1.1609,1.1535,1.1526,1.1623,1.1625,1.1625,0,1.2034,1.1971,1.1922,1.1905,1.1863,1.184,1.1821,1.1789,1.1764,1.1729,1.1712,1.1671,1.1648,1.1615,1.1598,1.1616,1.1534,1.1554,1.1523,1.1523,1.1505,1.1506,1.1425,1.1491,1.1491,1.1492,1.1492,0,1.1968,1.1925,1.1903,1.1872,1.1824,1.1812,1.1763,1.1745,1.1717,1.1681,1.1677,1.1643,1.1623,1.1586,1.1572,1.152,1.1509,1.1499,1.1495,1.1499,1.15,1.1483,1.1486,1.1489,1.149,1.149,1.1491,0,1.1913,1.1897,1.1843,1.1809,1.18,1.1766,1.1736,1.1705,1.1689,1.1645,1.1633,1.1607,1.1564,1.1544,1.1489,1.1479,1.142,1.142,1.1432,1.1431,1.14,1.1403,1.1305,1.1291,1.1367,1.1366,1.1366,0,1.1872,1.1839,1.1803,1.178,1.1762,1.1724,1.17,1.1686,1.166,1.162,1.1594,1.1551,1.1515,1.1445,1.142,1.1379,1.1377,1.1345,1.137,1.1375,1.1375,1.1378,1.1374,1.134,1.1339,1.1339,1.1338,0,1.18,1.1794,1.176,1.1723,1.1695,1.1664,1.1634,1.1615,1.1596,1.1567,1.1524,1.1497,1.1443,1.1399,1.1356,1.1335,1.1333,1.1331,1.1321,1.1324,1.1333,1.1327,1.1419,1.1333,1.1334,1.1334,1.1334,1.1334,1.175,1.1722,1.1692,1.1654,1.1631,1.1603,1.1574,1.1555,1.1519,1.1475,1.1469,1.1422,1.1389,1.1332,1.1309,1.1271,1.1278,1.1265,1.1261,1.1258,1.1256,1.134,1.1263,1.1263,1.1264,1.1264,1.1264,0,1.1678,1.166,1.1625,1.1585,1.1555,1.1558,1.1526,1.15,1.146,1.143,1.1396,1.1346,1.1305,1.1278,1.1235,1.121,1.1208,1.1199,1.1201,1.1196,1.1252,1.1264,1.1202,1.1202,1.1202,1.1202,1.1202,1.1202,1.1637,1.1589,1.1579,1.1519,1.15,1.1457,1.1438,1.1412,1.1388,1.1334,1.13,1.1284,1.1254,1.121,1.1172,1.1165,1.1149,1.114,1.1133,1.1185,1.1192,1.1198,1.121,1.1137,1.1136,1.108,1.1079,1.1079]}]]